SV2BZQ-2 Thessalonik GR current weather conditions

sailwx.info

Wind from 176 at 1 knots gusting 7

Air temperature 31.1° C
Dewpoint 23.5° C

Last reported at 2014-Aug-27 14:55 UTC.
Time now 2014-Aug-27 15:14 UTC

Location: N 40°41' E 022°51'.
View on Google Maps.

See reports from other nearby stations

  
Tides and Currents Weather Stations Pressure Air Temp Water Temp Dewpoint Dewpoint Depression Visibility Wind Speed Wind Dir Waves Ship Positions
date/time (UTC)wind fromknots sea level pressurealtimeterstation pressurevisibilityair tempwater tempwave heightnotes
2014-Aug-27 14:55 176 1 gusting 7 31.1
2014-Aug-27 14:45 173 4 gusting 5 31.7
2014-Aug-27 14:40 188 1 gusting 7 31.7
2014-Aug-27 14:35 166 4 gusting 7 32.2
2014-Aug-27 14:25 171 1 gusting 7 32.8
2014-Aug-27 14:15 168 1 gusting 5 32.8
2014-Aug-27 14:10 163 1 gusting 7 32.8
2014-Aug-27 14:05 167 4 gusting 5 33.3
2014-Aug-27 13:55 182 1 gusting 5 32.8
2014-Aug-27 13:45 191 1 gusting 6 33.3
2014-Aug-27 13:40 165 1 gusting 6 32.8
2014-Aug-27 13:35 169 3 gusting 5 33.3
2014-Aug-27 13:25 200 4 gusting 6 32.8
2014-Aug-27 13:15 158 1 gusting 6 33.3
2014-Aug-27 13:10 155 1 gusting 6 33.3
2014-Aug-27 13:05 140 1 gusting 5 33.3
2014-Aug-27 12:55 164 1 gusting 6 32.8
2014-Aug-27 12:45 205 6 gusting 7 33.3
2014-Aug-27 12:39 165 2 gusting 7 33.3
2014-Aug-27 12:35 175 0 gusting 4 33.9
2014-Aug-27 12:25 153 1 gusting 2 33.3
2014-Aug-27 12:15 194 5 gusting 7 33.3
2014-Aug-27 12:09 215 1 gusting 6 32.8
2014-Aug-27 12:05 163 0 gusting 4 32.8
2014-Aug-27 11:55 170 3 gusting 6 33.3
2014-Aug-27 11:45 211 5 gusting 6 33.3
2014-Aug-27 11:39 153 1 gusting 6 33.3
2014-Aug-27 11:35 182 2 gusting 4 33.3
2014-Aug-27 11:25 168 2 gusting 4 33.3
2014-Aug-27 11:15 132 1 gusting 3 33.3
2014-Aug-27 11:09 185 0 gusting 6 32.8
2014-Aug-27 11:05 175 2 gusting 5 32.8
2014-Aug-27 10:55 198 32.8
2014-Aug-27 10:45 198 32.2
2014-Aug-27 10:38 191 0 gusting 6 31.7
2014-Aug-27 10:35 216 1 gusting 2 32.2
2014-Aug-27 10:25 247 1 gusting 3 31.7
2014-Aug-27 10:15 186 1 gusting 6 32.2
2014-Aug-27 10:08 131 0 gusting 6 31.7
2014-Aug-27 10:05 164 1 gusting 4 31.7
2014-Aug-27 09:55 195 2 gusting 2 32.2
2014-Aug-27 09:45 190 31.7
2014-Aug-27 09:38 194 2 gusting 6 31.1
2014-Aug-27 09:35 218 2 gusting 3 31.7
2014-Aug-27 09:25 201 3 gusting 4 31.1
2014-Aug-27 09:15 193 1 gusting 2 31.1
2014-Aug-27 09:08 207 31.1
2014-Aug-27 09:05 171 31.1
2014-Aug-27 08:55 158 0 gusting 4 31.1
2014-Aug-27 08:45 182 30.6
2014-Aug-27 08:37 186 1 gusting 3 30.0
2014-Aug-27 08:35 226 1 gusting 2 30.6
2014-Aug-27 08:28 225 1 gusting 6 30.0
2014-Aug-27 08:25 207 30.0
2014-Aug-27 08:15 206 0 gusting 2 30.0
2014-Aug-27 08:07 210 1 gusting 5 30.0
2014-Aug-27 08:05 199 0 gusting 1 30.0
2014-Aug-27 07:55 206 0 gusting 2 29.4
2014-Aug-27 07:45 215 28.9
2014-Aug-27 07:37 215 28.9
2014-Aug-27 07:35 215 0 gusting 0 28.9
2014-Aug-27 07:25 215 0 gusting 4 28.3
2014-Aug-27 07:15 248 27.8
2014-Aug-27 07:07 278 0 gusting 3 27.2
2014-Aug-27 07:05 278 1 gusting 1 27.2
2014-Aug-27 06:55 277 26.1
2014-Aug-27 06:45 277 0 gusting 0 25.0
2014-Aug-27 06:36 276 24.4
2014-Aug-27 06:35 277 0 gusting 1 24.4
2014-Aug-27 06:25 278 23.9
2014-Aug-27 06:15 278 0 gusting 1 23.3
2014-Aug-27 06:06 277 0 gusting 4 22.8
2014-Aug-27 06:05 277 1 gusting 3 22.8
2014-Aug-27 05:55 285 1 gusting 5 22.8
2014-Aug-27 05:45 299 1 gusting 1 22.2
2014-Aug-27 05:36 299 0 gusting 2 21.7
2014-Aug-27 05:35 300 0 gusting 2 21.7
2014-Aug-27 05:25 299 2 gusting 2 21.7
2014-Aug-27 05:15 302 2 gusting 3 21.1
2014-Aug-27 05:05 294 1 gusting 6 21.1
2014-Aug-27 04:55 293 1 gusting 3 21.1
2014-Aug-27 04:50 294 1 gusting 4 20.6
2014-Aug-27 04:45 298 20.6
2014-Aug-27 04:35 298 20.6
2014-Aug-27 04:25 296 2 gusting 3 20.6
2014-Aug-27 04:20 296 0 gusting 4 20.6
2014-Aug-27 04:15 295 2 gusting 4 20.6
2014-Aug-27 04:05 292 1 gusting 4 20.6
2014-Aug-27 03:55 296 2 gusting 4 20.6
2014-Aug-27 03:50 296 1 gusting 4 20.6
2014-Aug-27 03:45 296 3 gusting 4 20.6
2014-Aug-27 03:35 296 2 gusting 4 20.6
2014-Aug-27 03:25 298 2 gusting 3 21.1
2014-Aug-27 03:19 299 0 gusting 4 20.6
2014-Aug-27 03:15 289 1 gusting 4 21.1
2014-Aug-27 03:05 289 1 gusting 2 21.1
2014-Aug-27 02:55 281 0 gusting 3 21.7
2014-Aug-27 02:49 281 1 gusting 4 21.1
2014-Aug-27 02:45 262 1 gusting 2 21.7
2014-Aug-27 02:35 261 0 gusting 3 21.7
2014-Aug-27 02:25 259 1 gusting 3 22.2
2014-Aug-27 02:20 254 21.7
2014-Aug-27 02:15 254 0 gusting 2 22.2
2014-Aug-27 02:05 254 1 gusting 2 22.2
2014-Aug-27 01:55 254 0 gusting 0 22.8
2014-Aug-27 01:49 254 22.2
2014-Aug-27 01:45 254 22.8
2014-Aug-27 01:35 254 22.8
2014-Aug-27 01:25 254 22.8
2014-Aug-27 01:18 253 22.8
2014-Aug-27 01:15 253 0 gusting 2 22.8
2014-Aug-27 01:05 253 23.3
2014-Aug-27 00:55 253 23.3
2014-Aug-27 00:48 253 23.3
2014-Aug-27 00:45 253 23.3
2014-Aug-27 00:35 253 0 gusting 2 23.9
2014-Aug-27 00:25 252 23.9
2014-Aug-27 00:18 252 23.9
2014-Aug-27 00:15 175 0 gusting 2 24.4
2014-Aug-27 00:05 165 24.4
2014-Aug-26 23:55 165 24.4
2014-Aug-26 23:49 164 24.4
2014-Aug-26 23:45 164 0 gusting 3 24.4
2014-Aug-26 23:35 164 24.4
2014-Aug-26 23:25 165 25.0
2014-Aug-26 23:17 164 24.4
2014-Aug-26 23:15 164 25.0
2014-Aug-26 23:05 164 25.0
2014-Aug-26 22:55 165 25.0
2014-Aug-26 22:48 165 25.0
2014-Aug-26 22:45 165 0 gusting 1 25.0
2014-Aug-26 22:35 165 25.6
2014-Aug-26 22:25 165 25.6
2014-Aug-26 22:17 164 25.0
2014-Aug-26 22:15 165 25.6
2014-Aug-26 22:05 165 25.6
2014-Aug-26 21:55 165 25.6
2014-Aug-26 21:45 165 25.6
2014-Aug-26 21:35 165 25.6
2014-Aug-26 21:25 165 25.6
2014-Aug-26 21:17 165 25.6
2014-Aug-26 21:15 165 25.6
2014-Aug-26 21:05 165 25.6
2014-Aug-26 20:55 165 26.1
2014-Aug-26 20:46 165 25.6
2014-Aug-26 20:45 164 26.1
2014-Aug-26 20:35 165 26.1
2014-Aug-26 20:25 165 26.1
2014-Aug-26 20:16 165 25.6
2014-Aug-26 20:15 165 26.1
2014-Aug-26 20:05 165 26.1
2014-Aug-26 19:55 165 26.1
2014-Aug-26 19:46 165 25.6
2014-Aug-26 19:45 165 26.1
2014-Aug-26 19:35 165 26.1
2014-Aug-26 19:25 165 0 gusting 0 26.1
2014-Aug-26 19:16 168 0 gusting 5 26.1
2014-Aug-26 19:15 166 1 gusting 3 26.1
2014-Aug-26 19:05 153 1 gusting 5 26.1
2014-Aug-26 18:55 172 1 gusting 4 26.1
2014-Aug-26 18:46 163 26.1
2014-Aug-26 18:45 159 0 gusting 0 26.7
2014-Aug-26 18:35 164 0 gusting 1 26.7
2014-Aug-26 18:25 153 0 gusting 2 26.7
2014-Aug-26 18:16 180 26.1
2014-Aug-26 18:15 180 26.7
2014-Aug-26 18:05 180 26.7
2014-Aug-26 18:00 180 26.7
2014-Aug-26 17:55 180 26.7
2014-Aug-26 17:45 180 26.7
2014-Aug-26 17:35 180 1 gusting 1 27.2
2014-Aug-26 17:30 180 0 gusting 4 26.7
2014-Aug-26 17:25 178 0 gusting 3 27.2
2014-Aug-26 17:15 178 27.2
2014-Aug-26 17:05 173 27.2
2014-Aug-26 17:00 173 0 gusting 4 27.2
2014-Aug-26 16:55 176 1 gusting 2 27.2
2014-Aug-26 16:45 178 1 gusting 8 27.2
2014-Aug-26 16:35 193 1 gusting 4 27.8
2014-Aug-26 16:30 206 1 gusting 5 27.8
2014-Aug-26 16:25 190 2 gusting 2 28.3
2014-Aug-26 16:15 196 2 gusting 6 27.8
2014-Aug-26 16:05 207 3 gusting 6 28.3
2014-Aug-26 16:00 202 1 gusting 8 28.3
2014-Aug-26 15:55 191 3 gusting 6 28.9
2014-Aug-26 15:45 204 4 gusting 7 29.4
2014-Aug-26 15:35 181 0 gusting 5 29.4
2014-Aug-26 15:29 189 2 gusting 9 28.9
2014-Aug-26 15:25 197 5 gusting 9 29.4
2014-Aug-26 15:15 205 3 gusting 6 29.4
2014-Aug-26 15:05 206 1 gusting 7 30.0
2014-Aug-26 14:59 200 3 gusting 8 30.0
2014-Aug-26 14:55 190 3 gusting 4 30.0
2014-Aug-26 14:45 172 5 gusting 9 30.0
2014-Aug-26 14:35 172 5 gusting 8 30.6
2014-Aug-26 14:29 194 4 gusting 10 30.0
2014-Aug-26 14:25 184 3 gusting 6 30.6
2014-Aug-26 14:15 193 2 gusting 6 30.6
2014-Aug-26 14:05 193 4 gusting 5 30.6
2014-Aug-26 13:58 210 2 gusting 9 30.0
2014-Aug-26 13:55 198 4 gusting 8 30.6
2014-Aug-26 13:45 170 5 gusting 6 30.0
2014-Aug-26 13:35 177 2 gusting 7 30.6
2014-Aug-26 13:28 196 5 gusting 8 30.0
2014-Aug-26 13:25 182 3 gusting 6 30.6
2014-Aug-26 13:15 195 1 gusting 6 30.6
2014-Aug-26 13:05 212 6 gusting 7 30.6
2014-Aug-26 12:58 159 4 gusting 10 30.0
2014-Aug-26 12:55 203 7 gusting 8 30.6
2014-Aug-26 12:45 196 3 gusting 7 30.6
2014-Aug-26 12:35 167 4 gusting 6 30.6
2014-Aug-26 12:28 169 2 gusting 12 30.6
2014-Aug-26 12:25 195 4 gusting 6 30.6
2014-Aug-26 12:15 168 4 gusting 6 30.6
2014-Aug-26 12:05 168 4 gusting 10 31.1
2014-Aug-26 11:58 188 2 gusting 8 31.1
2014-Aug-26 11:55 172 4 gusting 6 31.1
2014-Aug-26 11:45 146 2 gusting 3 31.1
2014-Aug-26 11:35 167 3 gusting 6 30.6
2014-Aug-26 11:27 206 3 gusting 9 30.6
2014-Aug-26 11:25 163 3 gusting 6 30.6
2014-Aug-26 11:15 177 5 gusting 6 30.6
2014-Aug-26 11:05 202 2 gusting 8 30.6
2014-Aug-26 10:57 193 3 gusting 11 30.6
2014-Aug-26 10:55 201 4 gusting 7 30.6
2014-Aug-26 10:45 167 2 gusting 5 30.6
2014-Aug-26 10:35 165 5 gusting 7 30.6
2014-Aug-26 10:27 179 4 gusting 9 30.6
2014-Aug-26 10:25 173 4 gusting 6 30.6
2014-Aug-26 10:15 187 0 gusting 5 30.6
2014-Aug-26 10:05 134 2 gusting 4 30.6
2014-Aug-26 09:57 160 1 gusting 6 30.0
2014-Aug-26 09:55 154 2 gusting 5 30.0
2014-Aug-26 09:45 192 2 gusting 4 30.6
2014-Aug-26 09:35 158 4 gusting 5 30.6
2014-Aug-26 09:26 128 3 gusting 8 30.0
2014-Aug-26 09:25 358 25.0
2014-Aug-26 09:15 23.9
2014-Aug-26 08:55
2014-Aug-26 08:45 23.9
2014-Aug-26 08:39
2014-Aug-26 08:34 23.9
2014-Aug-26 08:24 23.9
2014-Aug-26 08:14 23.9
2014-Aug-26 08:08
2014-Aug-26 08:04 23.9
2014-Aug-26 07:54 23.9
2014-Aug-26 07:44 23.9
2014-Aug-26 07:38
2014-Aug-26 07:34 23.9
2014-Aug-26 07:24 23.9
2014-Aug-26 07:14 23.9
2014-Aug-26 07:08
2014-Aug-26 07:04 23.9
2014-Aug-26 06:54 23.9
2014-Aug-26 06:44 23.9
2014-Aug-26 06:37
2014-Aug-26 06:34 23.9
2014-Aug-26 06:24 23.9
2014-Aug-26 06:14 23.9
2014-Aug-26 06:07
2014-Aug-26 06:04 23.9
2014-Aug-26 05:54 23.9
2014-Aug-26 05:44 23.9
2014-Aug-26 05:37
2014-Aug-26 05:34 23.9
2014-Aug-26 05:24 23.9
2014-Aug-26 05:14 23.9
2014-Aug-26 05:06
2014-Aug-26 05:04 23.9
2014-Aug-26 04:54 23.9
2014-Aug-26 04:44 23.9
2014-Aug-26 04:36
2014-Aug-26 04:34 23.9
2014-Aug-26 04:24 23.9
2014-Aug-26 04:14 23.9
2014-Aug-26 04:06
2014-Aug-26 04:04 23.9
2014-Aug-26 03:54 23.9
2014-Aug-26 03:44 23.9
2014-Aug-26 03:35
2014-Aug-26 03:24 23.9
2014-Aug-26 03:20
2014-Aug-26 03:14 23.9
2014-Aug-26 03:05
2014-Aug-26 02:54 23.9
2014-Aug-26 02:44 23.9
2014-Aug-26 02:35
2014-Aug-26 02:24 23.9
2014-Aug-26 02:19
2014-Aug-26 02:14 23.9
2014-Aug-26 02:04 23.9
2014-Aug-26 01:54 23.9
2014-Aug-26 01:50
2014-Aug-26 01:44 23.9
2014-Aug-26 01:34 23.9
2014-Aug-26 01:24 23.9
2014-Aug-26 01:19
2014-Aug-26 01:14 23.9
2014-Aug-26 01:04 23.9
2014-Aug-26 00:54 23.9
2014-Aug-26 00:49
2014-Aug-26 00:44 23.9
2014-Aug-26 00:34 321 1 gusting 1 23.9
2014-Aug-26 00:24 321 0 gusting 2 23.9
2014-Aug-26 00:19 321 1 gusting 3 23.3
2014-Aug-26 00:14 319 23.9
2014-Aug-26 00:04 315 1 gusting 2 23.3
2014-Aug-25 23:54 314 3 gusting 4 23.3
2014-Aug-25 23:48 313 2 gusting 4 23.3
2014-Aug-25 23:44 312 2 gusting 4 23.9
2014-Aug-25 23:34 317 2 gusting 3 23.9
2014-Aug-25 23:24 324 1 gusting 1 24.4
2014-Aug-25 23:19 317 3 gusting 6 24.4
2014-Aug-25 23:14 297 2 gusting 3 25.0
2014-Aug-25 23:04 296 3 gusting 3 25.6
2014-Aug-25 22:54 285 2 gusting 6 26.1
2014-Aug-25 22:48 240 25.6
2014-Aug-25 22:44 240 0 gusting 2 26.1
2014-Aug-25 22:34 154 25.6
2014-Aug-25 22:24 153 25.6
2014-Aug-25 22:18 153 25.0
2014-Aug-25 22:14 153 25.6
2014-Aug-25 22:04 153 25.6
2014-Aug-25 21:54 155 25.6
2014-Aug-25 21:47 155 25.6
2014-Aug-25 21:44 155 26.1
2014-Aug-25 21:34 155 26.1
2014-Aug-25 21:24 182 26.1
2014-Aug-25 21:17 182 26.1
2014-Aug-25 21:14 182 26.1
2014-Aug-25 21:04 182 26.1
2014-Aug-25 20:54 182 26.1
2014-Aug-25 20:47 182 26.1
2014-Aug-25 20:44 182 26.7
2014-Aug-25 20:34 182 26.7
2014-Aug-25 20:24 182 26.7
2014-Aug-25 20:17 182 26.1
2014-Aug-25 20:14 182 26.7
2014-Aug-25 20:04 182 26.7
2014-Aug-25 19:54 182 26.7
2014-Aug-25 19:47 182 26.1
2014-Aug-25 19:44 182 26.7
2014-Aug-25 19:34 182 26.7
2014-Aug-25 19:24 182 26.7
2014-Aug-25 19:16 182 26.7
2014-Aug-25 19:14 182 26.7
2014-Aug-25 19:04 182 26.7
2014-Aug-25 18:54 182 26.7
2014-Aug-25 18:46 182 26.7
2014-Aug-25 18:44 182 26.7
2014-Aug-25 18:34 182 27.2
2014-Aug-25 18:24 182 27.2
2014-Aug-25 18:16 182 26.7
2014-Aug-25 18:14 182 27.2
2014-Aug-25 18:04 182 27.2
2014-Aug-25 17:54 182 27.2
2014-Aug-25 17:46 182 27.2
2014-Aug-25 17:44 182 27.2
2014-Aug-25 17:34 182 27.2
2014-Aug-25 17:24 182 27.8
2014-Aug-25 17:16 183 27.2
2014-Aug-25 17:14 183 0 gusting 2 27.8
2014-Aug-25 17:04 183 27.8
2014-Aug-25 17:00 183 0 gusting 3 27.8
2014-Aug-25 16:54 186 0 gusting 0 27.8
2014-Aug-25 16:45 185 0 gusting 5 27.8
2014-Aug-25 16:34 203 3 gusting 5 28.3
2014-Aug-25 16:30 205 1 gusting 6 28.3
2014-Aug-25 16:24 207 3 gusting 6 28.3
2014-Aug-25 16:15 205 3 gusting 7 28.3
2014-Aug-25 16:04 206 3 gusting 5 28.9
2014-Aug-25 16:00 169 2 gusting 9 28.9
2014-Aug-25 15:54 199 4 gusting 5 29.4
2014-Aug-25 15:45 203 3 gusting 7 29.4
2014-Aug-25 15:34 166 3 gusting 6 30.0
2014-Aug-25 15:30 161 5 gusting 7 29.4
2014-Aug-25 15:24 163 4 gusting 7 30.0
2014-Aug-25 15:15 152 3 gusting 8 30.0
2014-Aug-25 15:04 186 3 gusting 4 30.6
2014-Aug-25 15:00 167 4 gusting 8 30.6